Regional Weather Roundup
Issued by NWS Albany, NY

Home | Current Version | Previous Version | Text Only | Print | Product List | Glossary On
Versions: 1 2 3 4 5 6 7 8 9 10 11 12 13 14 15 16 17 18 19 20 21 22 23 24 25 26 27
000
ASUS41 KALY 221910
RWRALY

NEW YORK STATE HOURLY WEATHER ROUNDUP
NATIONAL WEATHER SERVICE ALBANY NY
300 PM EDT TUE APR 22 2014

NOTE: "FAIR" INDICATES FEW OR NO CLOUDS BELOW 12,000 FEET WITH NO
SIGNIFICANT WEATHER AND/OR NO OBSTRUCTIONS TO VISIBILITY.

NYZ032-033-038>043-046>054-057>066-NYZ062>081-222000-
EAST


CITY           SKY/WX    TMP DP  RH WIND       PRES   REMARKS
ALBANY         LGT RAIN  64  43  46 S7        29.52F
GLENS FALLS    CLOUDY    71  46  40 SW12G20   29.49F
POUGHKEEPSIE   CLOUDY    71  43  36 S7        29.53F
NEWBURGH       CLOUDY    72  46  40 W17G23    29.56F
MONTGOMERY       N/A     69  43  38 SW14      29.55R
WHITE PLAINS   PTSUNNY   64  46  52 S9        29.57F
ISLIP          PTSUNNY   61  48  62 S14       29.59F
NEW YORK CITY  PTSUNNY   65  45  48 S13       29.57F
CENTRAL PARK   PTSUNNY   71  45  39 S7        29.59F
$$

NYZ005>009-017-018-044>046-055-056-222000-
CENTRAL


CITY           SKY/WX    TMP DP  RH WIND       PRES   REMARKS
FULTON         CLOUDY    54  50  86 W14G23    29.54R FOG
SYRACUSE       CLOUDY    59  56  89 W12       29.52S
ROME           RAIN      57  53  86 SW5       29.51F FOG
ELMIRA         RAIN      61  54  77 CALM      29.53F
BINGHAMTON     LGT RAIN  54  52  93 SW8       29.55F FOG
MONTICELLO     CLOUDY    57  50  77 W6        29.60F
$$

NYZ026>034-041>043-222000-
NORTH


CITY           SKY/WX    TMP DP  RH WIND       PRES   REMARKS
WATERTOWN      FOG       50  47  89 SW10      29.50S VSB 1
FORT DRUM      NOT AVBL
MASSENA        LGT RAIN  52  51  97 SW9       29.46F FOG
SARANAC LAKE   LGT RAIN  53  51  93 SW7       29.45F FOG
PLATTSBURGH    LGT RAIN  56  45  66 N7        29.45R
$$

NYZ001>004-010>016-019>021-222000-
WEST


CITY           SKY/WX    TMP DP  RH WIND       PRES   REMARKS
NIAGARA FALLS  CLOUDY    52  44  74 W16       29.60R
BUFFALO        FOG       42  41  96 SW16      29.61R VSB 3/4
DUNKIRK        CLOUDY    44  41  89 SW21G26   29.66R
JAMESTOWN      CLOUDY    48  43  81 W15G21    29.65R
WELLSVILLE     PTSUNNY   60  49  66 NW14G22   29.59S
ROCHESTER      LGT RAIN  59  51  75 NW10      29.54F
PENN YAN       CLOUDY    62  49  62 W12G25    29.54R
$$

             KEY
       WCI = WIND CHILL INDEX
       VSB = VISIBILITY
       HX  = HEAT INDEX
$$



USA.gov is the U.S. government's official web portal to all federal, state and local government web resources and services.